Location: L�Ave Maria
(50.7161°N, 1.5911°E)
Time: 13:10:52
(UTC+00:00)

Cosmos 1452 Rocket - Pass Details

Date: 10 July 2020
Orbit: 768 x 774 km, 74.1° (Epoch: 06 August)

Event Time Altitude Azimuth Distance (km) Brightness Sun altitude
Rises 22:05:27 0° 338° (NNW) 3,258 8.8 -13.0°
Reaches altitude 10° 22:07:55 10° 343° (NNW) 2,326 7.4 -13.2°
Maximum altitude 22:13:04 51° 60° (ENE) 965 4.0 -13.5°
Enters shadow 22:16:53 18° 131° (SE) 1,843 4.9 -13.8°
